Location: Invercargill
(46.4000°S, 168.3500°E)
Time: 19:02:50
(UTC+13:00)

Cosmos 1486 Rocket - Pass Details

Date: 24 January 2019
Orbit: 759 x 783 km, 74.1° (Epoch: 17 February)

Event Time Altitude Azimuth Distance (km) Brightness Sun altitude
Exits shadow 22:36:52 - 2° (N) 3,026 6.7 -10.1°
Reaches altitude 10° 22:38:49 10° 7° (N) 2,301 6.0 -10.4°
Maximum altitude 22:43:43 42° 77° (ENE) 1,093 4.4 -11.0°
Drops below altitude 10° 22:48:42 10° 146° (SE) 2,340 6.6 -11.6°
Sets 22:51:12 0° 152° (SSE) 3,278 7.5 -11.9°
